User: anonymous   Login
Location: Asarope
(8.2500°N, 4.4833°E)
Time: 19:54:21
(UTC+00:00)
Language:

GEOS 3 Rocket - Orbit

View from above orbital plane
View from above orbital plane
View from above satellite
View from above satellite

Ground track
Ground track

The orbit data is extracted from the following two-line orbital elements,

1 07735U 75027B   21169.19691073 -.00000113  00000-0  27718-4 0  9993
2 07735 114.9740 278.5092 0045558 213.7668 146.0508 14.24641164398426
Epoch (UTC): 18 June 2021 04:43:33
Eccentricity: 0.0045558
inclination: 114.9740°
perigee height: 777 km
apogee height: 842 km
right ascension of ascending node: 278.5092°
argument of perigee: 213.7668°
revolutions per day: 14.24641164
mean anomaly at epoch: 146.0508°
orbit number at epoch: 39842

The dashed part of the orbit path shows where the satellite is in the earth's shadow,  

DLR